Regional Weather Roundup
Issued by NWS

Home | Current Version | Previous Version | Text Only | Print | Product List | Glossary Off
Versions: 1 2 3 4 5 6 7 8 9 10 11 12 13 14 15 16 17 18 19 20 21 22 23 24 25 26 27 28 29 30 31 32 33 34 35 36 37 38 39 40 41 42 43 44 45 46 47 48 49 50

000
ASUS43 KIND 210609
RWRIN

WEATHER ROUNDUP FOR INDIANA
NATIONAL WEATHER SERVICE INDIANAPOLIS IN
200 AM EDT THU AUG 21 2014

NOTE: "FAIR" INDICATES FEW OR NO CLOUDS BELOW 12,000 FEET WITH NO
SIGNIFICANT WEATHER AND/OR OBSTRUCTIONS TO VISIBILITY.

* - STATION DOES NOT REPORT WEATHER SUCH AS PRECIPITATION OR FOG.

+ - STATION NOT QUALITY CONTROLLED BY THE NATIONAL WEATHER SERVICE.
    USE DATA WITH CAUTION...ESPECIALLY DEWPOINT AND RELATIVE
    HUMIDITY OBSERVATIONS.

INZ001>003-010>013-019-020-210700-
NORTHWEST INDIANA

CITY           SKY/WX    TMP DP  RH WIND       PRES   REMARKS
GARY /AIRPORT/ CLOUDY    75  67  76 S5        29.97S
KNOX *+        CLOUDY    70  65  85 SW7       29.99R
LA PORTE +     CLOUDY    70  69  98 CALM      29.99R
6HR MIN TEMP:  70; 6HR MAX TEMP:  78;

MICHIGAN CITY+ MOCLDY    72  70  94 CALM      29.98R
MONTICELLO +   LGT RAIN  70  69  95 CALM      29.99F
RENSSELAER +   LGT RAIN  70  70 100 CALM      29.99F
VALPARAISO     CLOUDY    70  66  87 S9        29.99R
6HR MIN TEMP:  70; 6HR MAX TEMP:  80;


$$

LMZ046-743>745-210700-
SOUTHERN LAKE MICHIGAN

STATION/POSITION TIME  TEMP WIND        PRES
                       AIR  DIR/SP/G
                 (UTC) (F)  (DEG/KT/KT) (MB)
MICHIGAN CITY    0600   74  180/  7/  8   N/A

$$

INZ004-005-014>016-021>024-210700-
NORTH CENTRAL INDIANA

CITY           SKY/WX    TMP DP  RH WIND       PRES   REMARKS
GOSHEN         FAIR      73  69  87 SW5       29.98R
6HR MIN TEMP:  73; 6HR MAX TEMP:  80;

LOGANSPORT +   RAIN      68  64  88 S6        30.01F
PERU/GRISSOM   LGT RAIN  69  69 100 S6        30.02R
6HR MIN TEMP:  68; 6HR MAX TEMP:  79; 6HR PCP: TRACE;

ROCHESTER +    FAIR      72  68  88 SW7       30.01S
SOUTH BEND     FAIR      73  68  84 W3        29.98S
6HR MIN TEMP:  73; 6HR MAX TEMP:  81;

WARSAW +       MOCLDY    72  68  88 SW5       30.00R

$$

INZ006>009-017-018-025>027-210700-
NORTHEAST INDIANA

CITY           SKY/WX    TMP DP  RH WIND       PRES   REMARKS
ANGOLA *+      CLEAR     70  61  73 CALM      29.98S
AUBURN +       FAIR      72  66  83 CALM      29.99F
FORT WAYNE     MOCLDY    69  67  93 SW6       30.00F
6HR MIN TEMP:  69; 6HR MAX TEMP:  77;

HUNTINGTON +   FAIR      69  67  92 SW7       30.00S
6HR MIN TEMP:  69; 6HR MAX TEMP:  80;


$$

INZ028-029-035-036-043>045-051>053-210700-
WEST CENTRAL INDIANA

CITY           SKY/WX    TMP DP  RH WIND       PRES   REMARKS
GREENCASTLE +  FAIR      68  68 100 CALM      30.03R
LAFAYETTE      MOCLDY    70  68  93 CALM      30.01S
6HR MIN TEMP:  69; 6HR MAX TEMP:  75;

TERRE HAUTE    FAIR      68  66  93 CALM      30.01R
6HR MIN TEMP:  68; 6HR MAX TEMP:  77;


$$

INZ030>032-037>040-046>048-054>057-064-065-210700-
CENTRAL INDIANA

CITY           SKY/WX    TMP DP  RH WIND       PRES   REMARKS
CP ATTERBURY + FAIR      70  66  88 CALM      30.02F
FRANKFORT +    FAIR     N/A N/A N/A CALM      30.03F
INDIANAPOLIS   CLOUDY    72  68  87 CALM      30.02S
6HR MIN TEMP:  72; 6HR MAX TEMP:  76;

-EAGLE CREEK   FAIR      73  67  81 CALM      30.02S
6HR MIN TEMP:  72; 6HR MAX TEMP:  78;

KOKOMO *+      MOCLDY    70  66  88 SW6       30.03R
MARION +       FAIR      67  64  90 SW3       30.03S
MT COMFORT *+  FAIR      70 N/A N/A CALM      30.03F
SHELBYVILLE    FAIR      73  32  22 S3        30.02F
6HR MIN TEMP:  72; 6HR MAX TEMP:  75;

ZIONSVILLE +   FAIR      71  66  85 CALM      30.03F
6HR MIN TEMP:  70; 6HR MAX TEMP:  76;


$$

INZ033-034-041-042-049-050-058-059-210700-
EAST CENTRAL INDIANA

CITY           SKY/WX    TMP DP  RH WIND       PRES   REMARKS
MUNCIE         FAIR      72  66  81 SW6       30.02F
6HR MIN TEMP:  71; 6HR MAX TEMP:  79;


$$

INZ060-061-067>069-081>083-085>088-210700-
SOUTHWEST INDIANA

CITY           SKY/WX    TMP DP  RH WIND       PRES   REMARKS
EVANSVILLE     FAIR      77  68  73 S6        30.02F
6HR MIN TEMP:  76; 6HR MAX TEMP:  82;

WASHINGTON +   FAIR      73  71  93 S7        30.00F
6HR MIN TEMP:  70; 6HR MAX TEMP:  78;


$$

INZ062-063-066-070>080-084-089>092-210700-
SOUTH CENTRAL AND SOUTHEAST INDIANA

CITY           SKY/WX    TMP DP  RH WIND       PRES   REMARKS
BLOOMINGTON    FAIR      72  68  87 CALM      30.02S
6HR MIN TEMP:  71; 6HR MAX TEMP:  76;


$$




USA.gov is the U.S. government's official web portal to all federal, state and local government web resources and services.